DAL829 KSLC-KLAX

Flight info

Callsign DAL829
Flight time 1h 19m
Altitude 34000
Route EHK LAKRR HAKMN ANJLL4
Aircraft B739/M-SDE2E3FGHIRWXY/LB1

Departure

Time 2026-05-07 22:36
Airport Salt Lake City International Airport (KSLC)

Arrival

Time 2026-05-07 23:55
Airport Los Angeles International Airport (KLAX)
Time Latitude Longitude Altitude Speed Heading
2026-05-07 21:42 40.78605 -111.98827 4235 ft 0 kts 174°
2026-05-07 22:21 40.78614 -111.98828 4234 ft 3 kts 173°
2026-05-07 22:21 40.78634 -111.98832 4234 ft 3 kts 166°
2026-05-07 22:21 40.78653 -111.98839 4233 ft 3 kts 154°
2026-05-07 22:21 40.78670 -111.98850 4234 ft 3 kts 130°
2026-05-07 22:22 40.78680 -111.98867 4233 ft 2 kts 89°
2026-05-07 22:22 40.78680 -111.98871 4233 ft 1 kts 85°
2026-05-07 22:26 40.78681 -111.98857 4235 ft 5 kts 84°
2026-05-07 22:27 40.78688 -111.98776 4235 ft 13 kts 84°
2026-05-07 22:27 40.78699 -111.98635 4235 ft 17 kts 87°
2026-05-07 22:27 40.78709 -111.98476 4235 ft 18 kts 85°
2026-05-07 22:27 40.78719 -111.98297 4235 ft 20 kts 84°
2026-05-07 22:28 40.78732 -111.98108 4235 ft 22 kts 85°
2026-05-07 22:28 40.78744 -111.97904 4235 ft 20 kts 82°
2026-05-07 22:28 40.78779 -111.97777 4235 ft 9 kts 62°
2026-05-07 22:28 40.78820 -111.97739 4235 ft 8 kts 13°
2026-05-07 22:29 40.78920 -111.97727 4235 ft 18 kts 346°
2026-05-07 22:29 40.79075 -111.97815 4235 ft 30 kts 339°
2026-05-07 22:29 40.79296 -111.97845 4235 ft 32 kts 356°
2026-05-07 22:29 40.79501 -111.97866 4235 ft 28 kts 355°
2026-05-07 22:30 40.79689 -111.97887 4235 ft 26 kts 354°
2026-05-07 22:30 40.79863 -111.97909 4235 ft 24 kts 353°
2026-05-07 22:30 40.80022 -111.97928 4235 ft 22 kts 355°
2026-05-07 22:30 40.80171 -111.97944 4235 ft 21 kts 355°
2026-05-07 22:31 40.80306 -111.97973 4235 ft 19 kts 345°
2026-05-07 22:31 40.80429 -111.98000 4235 ft 18 kts 355°
2026-05-07 22:31 40.80545 -111.98016 4235 ft 16 kts 351°
2026-05-07 22:31 40.80648 -111.98050 4235 ft 14 kts 346°
2026-05-07 22:32 40.80731 -111.98021 4235 ft 8 kts 60°
2026-05-07 22:32 40.80736 -111.97988 4235 ft 8 kts 79°
2026-05-07 22:32 40.80740 -111.97933 4234 ft 7 kts 84°
2026-05-07 22:32 40.80744 -111.97891 4234 ft 1 kts 84°
2026-05-07 22:33 40.80744 -111.97888 4234 ft 1 kts 84°
2026-05-07 22:33 40.80746 -111.97862 4234 ft 12 kts 84°
2026-05-07 22:33 40.80747 -111.97851 4234 ft 0 kts 84°
2026-05-07 22:34 40.80748 -111.97817 4234 ft 19 kts 93°
2026-05-07 22:35 40.80684 -111.97692 4233 ft 12 kts 167°
2026-05-07 22:35 40.80445 -111.97660 4237 ft 63 kts 175°
2026-05-07 22:35 40.79882 -111.97593 4234 ft 114 kts 175°
2026-05-07 22:35 40.78912 -111.97480 4236 ft 164 kts 175°
2026-05-07 22:36 40.77643 -111.97334 4345 ft 199 kts 175°
2026-05-07 22:36 40.76198 -111.97146 4842 ft 216 kts 175°
2026-05-07 22:36 40.74585 -111.96956 5068 ft 251 kts 179°
2026-05-07 22:36 40.72750 -111.96943 5545 ft 276 kts 182°
2026-05-07 22:37 40.70828 -111.97005 6037 ft 287 kts 181°
2026-05-07 22:37 40.68721 -111.96923 6487 ft 303 kts 178°
2026-05-07 22:37 40.66650 -111.96776 6909 ft 307 kts 178°
2026-05-07 22:37 40.64420 -111.96608 7387 ft 334 kts 178°
2026-05-07 22:38 40.62001 -111.96421 7880 ft 360 kts 178°
2026-05-07 22:38 40.59416 -111.96220 8362 ft 376 kts 178°
2026-05-07 22:38 40.56930 -111.96026 8742 ft 342 kts 178°
2026-05-07 22:38 40.54609 -111.95848 8922 ft 340 kts 178°
2026-05-07 22:39 40.52257 -111.95672 9395 ft 342 kts 178°
2026-05-07 22:39 40.49779 -111.95466 9955 ft 364 kts 177°
2026-05-07 22:39 40.47213 -111.95267 10455 ft 372 kts 178°
2026-05-07 22:39 40.44629 -111.95094 10955 ft 384 kts 178°
2026-05-07 22:40 40.41905 -111.94908 11458 ft 400 kts 178°
2026-05-07 22:40 40.39098 -111.94713 11957 ft 405 kts 178°
2026-05-07 22:40 40.36288 -111.94519 12485 ft 406 kts 178°
2026-05-07 22:40 40.33443 -111.94323 13023 ft 410 kts 178°
2026-05-07 22:41 40.30585 -111.94135 13590 ft 412 kts 179°
2026-05-07 22:41 40.27701 -111.94040 14131 ft 416 kts 181°
2026-05-07 22:41 40.24810 -111.94248 14635 ft 418 kts 187°
2026-05-07 22:41 40.21915 -111.94655 15130 ft 420 kts 188°
2026-05-07 22:42 40.18996 -111.95110 15643 ft 424 kts 188°
2026-05-07 22:42 40.16057 -111.95600 16163 ft 428 kts 188°
2026-05-07 22:42 40.13078 -111.96042 16682 ft 433 kts 188°
2026-05-07 22:42 40.10070 -111.96485 17219 ft 437 kts 188°
2026-05-07 22:43 40.07038 -111.96927 17766 ft 440 kts 188°
2026-05-07 22:43 40.03975 -111.97375 18308 ft 446 kts 188°
2026-05-07 22:43 40.00912 -111.97824 18778 ft 451 kts 188°
2026-05-07 22:43 39.97776 -111.98283 19275 ft 454 kts 188°
2026-05-07 22:44 39.94622 -111.98743 19767 ft 457 kts 188°
2026-05-07 22:44 39.91441 -111.99208 20268 ft 462 kts 188°
2026-05-07 22:44 39.88234 -111.99675 20784 ft 466 kts 188°
2026-05-07 22:44 39.84991 -112.00148 21312 ft 471 kts 188°
2026-05-07 22:45 39.81716 -112.00625 21862 ft 475 kts 187°
2026-05-07 22:45 39.78417 -112.01106 22410 ft 479 kts 187°
2026-05-07 22:45 39.75088 -112.01589 22933 ft 485 kts 187°
2026-05-07 22:45 39.71718 -112.02078 23451 ft 490 kts 187°
2026-05-07 22:46 39.68312 -112.02573 23900 ft 493 kts 187°
2026-05-07 22:46 39.64889 -112.03067 24322 ft 496 kts 187°
2026-05-07 22:46 39.61449 -112.03566 24770 ft 499 kts 187°
2026-05-07 22:46 39.58031 -112.04060 25211 ft 502 kts 187°
2026-05-07 22:47 39.54546 -112.04565 25668 ft 506 kts 187°
2026-05-07 22:47 39.51029 -112.05072 26128 ft 510 kts 187°
2026-05-07 22:47 39.47477 -112.05588 26596 ft 514 kts 187°
2026-05-07 22:47 39.43922 -112.06092 27074 ft 513 kts 187°
2026-05-07 22:48 39.40381 -112.06596 27563 ft 510 kts 187°
2026-05-07 22:48 39.36855 -112.07096 28059 ft 508 kts 187°
2026-05-07 22:48 39.33352 -112.07594 28559 ft 508 kts 187°
2026-05-07 22:48 39.29836 -112.08092 29089 ft 508 kts 187°
2026-05-07 22:49 39.26385 -112.08581 29603 ft 507 kts 187°
2026-05-07 22:49 39.23694 -112.08962 30012 ft 507 kts 187°
2026-05-07 22:49 39.20189 -112.09457 30479 ft 506 kts 187°
2026-05-07 22:49 39.16694 -112.09979 30942 ft 505 kts 191°
2026-05-07 22:50 39.13319 -112.11190 31454 ft 502 kts 202°
2026-05-07 22:50 39.11179 -112.12293 31763 ft 499 kts 207°
2026-05-07 22:50 39.07293 -112.14930 32400 ft 495 kts 211°
2026-05-07 22:50 39.04285 -112.17085 32906 ft 494 kts 212°
2026-05-07 22:51 39.01297 -112.19260 33409 ft 492 kts 212°
2026-05-07 22:51 38.98448 -112.21335 33785 ft 493 kts 212°
2026-05-07 22:51 38.95446 -112.23522 33939 ft 500 kts 212°
2026-05-07 22:52 38.89293 -112.27992 34040 ft 517 kts 212°
2026-05-07 22:52 38.82914 -112.32617 34028 ft 533 kts 212°
2026-05-07 22:53 38.76547 -112.37221 34022 ft 523 kts 212°
2026-05-07 22:53 38.70213 -112.41797 34013 ft 522 kts 212°
2026-05-07 22:54 38.63869 -112.46368 33998 ft 524 kts 211°
2026-05-07 22:54 38.57527 -112.50929 33990 ft 522 kts 211°
2026-05-07 22:55 38.51183 -112.55481 33997 ft 524 kts 211°
2026-05-07 22:55 38.44820 -112.60037 33995 ft 524 kts 211°
2026-05-07 22:56 38.38519 -112.64541 33998 ft 523 kts 211°
2026-05-07 22:56 38.32160 -112.69076 33994 ft 525 kts 211°
2026-05-07 22:57 38.25774 -112.73621 33992 ft 525 kts 211°
2026-05-07 22:57 38.19403 -112.78147 33984 ft 525 kts 211°
2026-05-07 22:58 38.13020 -112.82672 33966 ft 526 kts 211°
2026-05-07 22:58 38.06618 -112.87202 33955 ft 527 kts 211°
2026-05-07 22:59 38.00270 -112.91683 33970 ft 525 kts 211°
2026-05-07 22:59 37.93871 -112.96192 34011 ft 527 kts 211°
2026-05-07 23:00 37.87450 -113.00707 34051 ft 527 kts 211°
2026-05-07 23:00 37.81022 -113.05189 34088 ft 527 kts 210°
2026-05-07 23:01 37.74675 -113.09796 34071 ft 527 kts 212°
2026-05-07 23:01 37.68325 -113.14452 34071 ft 528 kts 212°
2026-05-07 23:02 37.61980 -113.19094 34062 ft 527 kts 212°
2026-05-07 23:02 37.55638 -113.23724 34030 ft 526 kts 212°
2026-05-07 23:03 37.49334 -113.28316 33993 ft 528 kts 211°
2026-05-07 23:03 37.42966 -113.32945 33957 ft 528 kts 211°
2026-05-07 23:04 37.37638 -113.36809 33921 ft 527 kts 211°
2026-05-07 23:04 37.31326 -113.41385 33922 ft 528 kts 211°
2026-05-07 23:05 37.24946 -113.45997 33925 ft 530 kts 211°
2026-05-07 23:05 37.18911 -113.50350 33931 ft 528 kts 211°
2026-05-07 23:06 37.13349 -113.54356 33935 ft 528 kts 211°
2026-05-07 23:06 37.08551 -113.57806 33939 ft 529 kts 211°
2026-05-07 23:07 37.03908 -113.61140 33936 ft 528 kts 211°
2026-05-07 23:07 36.98642 -113.64916 33939 ft 527 kts 211°
2026-05-07 23:08 36.92491 -113.69318 33930 ft 527 kts 211°
2026-05-07 23:08 36.87489 -113.72892 33924 ft 528 kts 211°
2026-05-07 23:09 36.81202 -113.77376 33907 ft 528 kts 211°
2026-05-07 23:09 36.74783 -113.81946 33896 ft 526 kts 211°
2026-05-07 23:10 36.68427 -113.86463 33891 ft 527 kts 210°
2026-05-07 23:10 36.62041 -113.90991 33890 ft 528 kts 210°
2026-05-07 23:11 36.55659 -113.95508 33882 ft 526 kts 210°
2026-05-07 23:11 36.49363 -113.99957 33877 ft 527 kts 210°
2026-05-07 23:12 36.42967 -114.04466 33867 ft 528 kts 210°
2026-05-07 23:12 36.36581 -114.08960 33868 ft 527 kts 210°
2026-05-07 23:13 36.30193 -114.13447 33863 ft 528 kts 210°
2026-05-07 23:13 36.23802 -114.17927 33855 ft 528 kts 210°
2026-05-07 23:14 36.17407 -114.22402 33849 ft 527 kts 210°
2026-05-07 23:14 36.11088 -114.26873 33860 ft 527 kts 216°
2026-05-07 23:15 36.05582 -114.32825 33853 ft 525 kts 229°
2026-05-07 23:15 36.00687 -114.39503 33848 ft 523 kts 230°
2026-05-07 23:16 35.95845 -114.46204 33845 ft 522 kts 230°
2026-05-07 23:16 35.91000 -114.52902 33860 ft 523 kts 230°
2026-05-07 23:17 35.86180 -114.59551 33871 ft 523 kts 230°
2026-05-07 23:17 35.81329 -114.66229 33887 ft 521 kts 230°
2026-05-07 23:18 35.76480 -114.72892 33898 ft 523 kts 230°
2026-05-07 23:18 35.71621 -114.79554 33906 ft 522 kts 230°
2026-05-07 23:19 35.66768 -114.86196 33912 ft 521 kts 230°
2026-05-07 23:19 35.61914 -114.92826 33918 ft 521 kts 229°
2026-05-07 23:20 35.57051 -114.99453 33920 ft 522 kts 229°
2026-05-07 23:20 35.54652 -115.02719 33778 ft 520 kts 229°
2026-05-07 23:20 35.52177 -115.05878 33866 ft 507 kts 220°
2026-05-07 23:21 35.46164 -115.10376 33933 ft 510 kts 205°
2026-05-07 23:21 35.39650 -115.13958 33922 ft 513 kts 204°
2026-05-07 23:22 35.33114 -115.17464 33910 ft 510 kts 204°
2026-05-07 23:22 35.26596 -115.20951 33902 ft 511 kts 204°
2026-05-07 23:23 35.20108 -115.24416 33898 ft 512 kts 204°
2026-05-07 23:23 35.13583 -115.27895 33896 ft 510 kts 204°
2026-05-07 23:23 35.10303 -115.29642 33448 ft 517 kts 203°
2026-05-07 23:24 35.07025 -115.31386 32944 ft 511 kts 203°
2026-05-07 23:24 35.03789 -115.33106 32437 ft 503 kts 203°
2026-05-07 23:24 35.00607 -115.34796 31950 ft 496 kts 203°
2026-05-07 23:24 34.97447 -115.36473 31476 ft 493 kts 203°
2026-05-07 23:25 34.94300 -115.38142 30998 ft 492 kts 203°
2026-05-07 23:25 34.91170 -115.39800 30529 ft 490 kts 203°
2026-05-07 23:25 34.88048 -115.41453 30080 ft 486 kts 203°
2026-05-07 23:25 34.84957 -115.43088 29569 ft 482 kts 203°
2026-05-07 23:26 34.81920 -115.44774 29042 ft 478 kts 211°
2026-05-07 23:26 34.79276 -115.47172 28561 ft 472 kts 227°
2026-05-07 23:26 34.77312 -115.50316 28090 ft 465 kts 245°
2026-05-07 23:26 34.76007 -115.53893 27605 ft 461 kts 252°
2026-05-07 23:27 34.73755 -115.61123 26625 ft 453 kts 249°
2026-05-07 23:27 34.72494 -115.64618 26147 ft 449 kts 249°
2026-05-07 23:27 34.71227 -115.68075 25678 ft 447 kts 248°
2026-05-07 23:28 34.69958 -115.71508 25214 ft 444 kts 248°
2026-05-07 23:28 34.68697 -115.74912 24761 ft 438 kts 248°
2026-05-07 23:28 34.67492 -115.78160 24316 ft 418 kts 248°
2026-05-07 23:28 34.66310 -115.81351 23886 ft 413 kts 248°
2026-05-07 23:29 34.65126 -115.84543 23456 ft 417 kts 248°
2026-05-07 23:29 34.63915 -115.87771 23094 ft 420 kts 248°
2026-05-07 23:29 34.62735 -115.90993 22940 ft 413 kts 248°
2026-05-07 23:29 34.61564 -115.94172 22881 ft 413 kts 248°
2026-05-07 23:30 34.60390 -115.97363 22872 ft 415 kts 248°
2026-05-07 23:30 34.59208 -116.00566 22874 ft 416 kts 248°
2026-05-07 23:30 34.58023 -116.03775 22882 ft 416 kts 248°
2026-05-07 23:30 34.56843 -116.06968 22895 ft 415 kts 248°
2026-05-07 23:31 34.55660 -116.10167 22911 ft 416 kts 248°
2026-05-07 23:31 34.54966 -116.12041 22913 ft 416 kts 248°
2026-05-07 23:31 34.53862 -116.15022 22915 ft 417 kts 248°
2026-05-07 23:31 34.52674 -116.18225 22925 ft 416 kts 248°
2026-05-07 23:32 34.51487 -116.21421 22928 ft 415 kts 248°
2026-05-07 23:32 34.50301 -116.24613 22933 ft 415 kts 248°
2026-05-07 23:32 34.49112 -116.27811 22933 ft 416 kts 248°
2026-05-07 23:32 34.47922 -116.31008 22935 ft 416 kts 248°
2026-05-07 23:33 34.47133 -116.33122 22933 ft 416 kts 248°
2026-05-07 23:33 34.45927 -116.36358 22936 ft 416 kts 248°
2026-05-07 23:33 34.44735 -116.39550 22925 ft 415 kts 248°
2026-05-07 23:33 34.43557 -116.42703 22922 ft 417 kts 248°
2026-05-07 23:34 34.42390 -116.45922 22923 ft 417 kts 246°
2026-05-07 23:34 34.41596 -116.47902 22931 ft 418 kts 246°
2026-05-07 23:34 34.40390 -116.50862 22920 ft 417 kts 246°
2026-05-07 23:34 34.39101 -116.54002 22917 ft 417 kts 245°
2026-05-07 23:35 34.37806 -116.57145 22917 ft 417 kts 245°
2026-05-07 23:35 34.36509 -116.60289 22920 ft 418 kts 245°
2026-05-07 23:35 34.35197 -116.63451 22538 ft 423 kts 244°
2026-05-07 23:35 34.33883 -116.66607 22051 ft 417 kts 246°
2026-05-07 23:36 34.32627 -116.69743 21571 ft 410 kts 246°
2026-05-07 23:36 34.31386 -116.72830 21098 ft 404 kts 246°
2026-05-07 23:36 34.30164 -116.75872 20642 ft 400 kts 246°
2026-05-07 23:36 34.28948 -116.78895 20185 ft 399 kts 246°
2026-05-07 23:37 34.27736 -116.81902 19739 ft 397 kts 246°
2026-05-07 23:37 34.26544 -116.84858 19301 ft 395 kts 246°
2026-05-07 23:37 34.25329 -116.87868 18854 ft 392 kts 245°
2026-05-07 23:37 34.24136 -116.90823 18435 ft 389 kts 245°
2026-05-07 23:38 34.22966 -116.93720 17986 ft 387 kts 246°
2026-05-07 23:38 34.21811 -116.96649 17503 ft 384 kts 246°
2026-05-07 23:38 34.20799 -116.99611 17015 ft 379 kts 253°
2026-05-07 23:38 34.19955 -117.02616 16549 ft 375 kts 253°
2026-05-07 23:39 34.19139 -117.05598 16064 ft 372 kts 253°
2026-05-07 23:39 34.18337 -117.08561 15617 ft 370 kts 253°
2026-05-07 23:39 34.17552 -117.11504 15151 ft 366 kts 254°
2026-05-07 23:39 34.16760 -117.14406 14704 ft 362 kts 253°
2026-05-07 23:40 34.15972 -117.17275 14261 ft 358 kts 253°
2026-05-07 23:40 34.15190 -117.20121 13800 ft 355 kts 253°
2026-05-07 23:40 34.14414 -117.22943 13322 ft 352 kts 253°
2026-05-07 23:40 34.13644 -117.25732 12833 ft 349 kts 253°
2026-05-07 23:41 34.12882 -117.28499 12379 ft 346 kts 253°
2026-05-07 23:41 34.12130 -117.31229 12148 ft 342 kts 253°
2026-05-07 23:41 34.11409 -117.33996 11715 ft 347 kts 255°
2026-05-07 23:41 34.10730 -117.36670 11288 ft 341 kts 255°
2026-05-07 23:42 34.10168 -117.39393 10865 ft 332 kts 269°
2026-05-07 23:42 34.10357 -117.41840 10502 ft 319 kts 291°
2026-05-07 23:42 34.10793 -117.43556 10299 ft 313 kts 277°
2026-05-07 23:42 34.10680 -117.45545 9993 ft 314 kts 266°
2026-05-07 23:43 34.10581 -117.47137 9732 ft 313 kts 269°
2026-05-07 23:43 34.10060 -117.49714 9319 ft 318 kts 245°
2026-05-07 23:43 34.08900 -117.51924 9133 ft 313 kts 238°
2026-05-07 23:43 34.07663 -117.54084 8951 ft 303 kts 239°
2026-05-07 23:44 34.06569 -117.56204 8509 ft 304 kts 243°
2026-05-07 23:44 34.05570 -117.58442 8070 ft 300 kts 245°
2026-05-07 23:44 34.04681 -117.60642 7649 ft 296 kts 249°
2026-05-07 23:44 34.03988 -117.62953 7276 ft 289 kts 254°
2026-05-07 23:45 34.03387 -117.65208 7114 ft 276 kts 254°
2026-05-07 23:45 34.02834 -117.67384 7028 ft 271 kts 255°
2026-05-07 23:45 34.02353 -117.69479 6728 ft 263 kts 257°
2026-05-07 23:45 34.02129 -117.70880 6461 ft 264 kts 262°
2026-05-07 23:46 34.01891 -117.73028 6220 ft 260 kts 264°
2026-05-07 23:46 34.01717 -117.75192 6108 ft 260 kts 264°
2026-05-07 23:46 34.01553 -117.76654 6064 ft 261 kts 263°
2026-05-07 23:46 34.01261 -117.79459 6033 ft 262 kts 264°
2026-05-07 23:47 34.01079 -117.81627 6035 ft 262 kts 266°
2026-05-07 23:47 34.00857 -117.83811 6020 ft 263 kts 263°
2026-05-07 23:47 34.00624 -117.85987 6010 ft 262 kts 264°
2026-05-07 23:47 34.00398 -117.88190 5724 ft 267 kts 262°
2026-05-07 23:48 34.00137 -117.90378 5340 ft 259 kts 264°
2026-05-07 23:48 33.99952 -117.92520 5143 ft 257 kts 265°
2026-05-07 23:48 33.99796 -117.94629 5067 ft 259 kts 265°
2026-05-07 23:48 33.99627 -117.96801 5029 ft 258 kts 265°
2026-05-07 23:49 33.99444 -117.98975 4884 ft 263 kts 264°
2026-05-07 23:49 33.99246 -118.01157 4452 ft 259 kts 264°
2026-05-07 23:49 33.99025 -118.03290 4211 ft 256 kts 264°
2026-05-07 23:49 33.98800 -118.05416 4094 ft 255 kts 263°
2026-05-07 23:50 33.98644 -118.06843 4062 ft 255 kts 263°
2026-05-07 23:50 33.98413 -118.08971 4027 ft 256 kts 263°
2026-05-07 23:50 33.98186 -118.11076 4019 ft 257 kts 263°
2026-05-07 23:50 33.97955 -118.13239 4010 ft 257 kts 264°
2026-05-07 23:51 33.97736 -118.15353 3616 ft 251 kts 264°
2026-05-07 23:51 33.97528 -118.17419 3291 ft 243 kts 264°
2026-05-07 23:51 33.97323 -118.19412 3139 ft 242 kts 264°
2026-05-07 23:51 33.97128 -118.21370 2862 ft 237 kts 264°
2026-05-07 23:52 33.96935 -118.23332 2440 ft 234 kts 263°
2026-05-07 23:52 33.96741 -118.25267 2078 ft 234 kts 263°
2026-05-07 23:52 33.96543 -118.27201 1644 ft 231 kts 262°
2026-05-07 23:52 33.96345 -118.29089 1290 ft 226 kts 262°
2026-05-07 23:53 33.96158 -118.30865 1119 ft 212 kts 262°
2026-05-07 23:53 33.95988 -118.32557 1065 ft 191 kts 262°
2026-05-07 23:53 33.95856 -118.33898 918 ft 178 kts 262°
2026-05-07 23:53 33.95724 -118.35061 729 ft 176 kts 261°
2026-05-07 23:54 33.95595 -118.36079 593 ft 172 kts 261°
2026-05-07 23:54 33.95453 -118.37269 510 ft 195 kts 262°
2026-05-07 23:54 33.95327 -118.38621 398 ft 182 kts 264°
2026-05-07 23:54 33.95228 -118.39982 175 ft 171 kts 264°
2026-05-07 23:55 33.95121 -118.41068 122 ft 146 kts 263°
2026-05-07 23:55 33.95044 -118.41784 126 ft 114 kts 263°
2026-05-07 23:55 33.94994 -118.42260 126 ft 79 kts 262°
2026-05-07 23:55 33.94903 -118.42604 122 ft 7 kts 233°
2026-05-07 23:56 33.94878 -118.42641 123 ft 9 kts 230°
2026-05-07 23:56 33.94862 -118.42664 124 ft 3 kts 229°
2026-05-07 23:56 33.94859 -118.42667 124 ft 0 kts 229°
2026-05-07 23:56 33.94856 -118.42672 122 ft 5 kts 228°
2026-05-07 23:57 33.94770 -118.42753 126 ft 26 kts 210°
2026-05-07 23:57 33.94612 -118.42734 126 ft 9 kts 106°
2026-05-07 23:57 33.94630 -118.42668 123 ft 10 kts 71°
2026-05-07 23:57 33.94647 -118.42577 123 ft 13 kts 81°
2026-05-07 23:58 33.94657 -118.42495 125 ft 15 kts 84°
2026-05-07 23:58 33.94666 -118.42405 124 ft 18 kts 83°
2026-05-07 23:58 33.94675 -118.42322 123 ft 19 kts 82°
2026-05-07 23:58 33.94689 -118.42206 121 ft 18 kts 82°
2026-05-07 23:59 33.94701 -118.42080 124 ft 15 kts 84°
2026-05-07 23:59 33.94714 -118.41973 126 ft 11 kts 83°
2026-05-07 23:59 33.94724 -118.41879 124 ft 11 kts 82°
2026-05-07 23:59 33.94735 -118.41779 124 ft 13 kts 82°
2026-05-08 00:00 33.94747 -118.41668 122 ft 14 kts 82°
2026-05-08 00:00 33.94760 -118.41551 123 ft 15 kts 82°
2026-05-08 00:00 33.94773 -118.41424 126 ft 16 kts 77°
2026-05-08 00:00 33.94795 -118.41292 124 ft 16 kts 80°
2026-05-08 00:01 33.94809 -118.41153 124 ft 17 kts 83°
2026-05-08 00:01 33.94825 -118.41008 124 ft 18 kts 82°
2026-05-08 00:01 33.94810 -118.40900 124 ft 12 kts 141°
2026-05-08 00:01 33.94761 -118.40824 124 ft 12 kts 97°
2026-05-08 00:02 33.94762 -118.40806 122 ft 1 kts 86°
2026-05-08 00:02 33.94763 -118.40797 124 ft 3 kts 84°
2026-05-08 00:02 33.94765 -118.40755 124 ft 6 kts 100°
2026-05-08 00:02 33.94735 -118.40731 123 ft 6 kts 153°
2026-05-08 00:03 33.94718 -118.40721 124 ft 0 kts 152°
2026-05-08 00:03 33.94712 -118.40717 123 ft 2 kts 153°
2026-05-08 00:03 33.94708 -118.40715 123 ft 0 kts 153°